| time (UTC) | temp F | wind direction | speed MPH | gust MPH | rain 1hr in | rain 24hr in | rain mn in | humidity % | barometer mb |
| 20260504090123 | 0 | 270 | 8.0 | 11.0 | 0.00 | 0.00 | 0.00 | ||
| 20260504081520 | 0 | 270 | 9.0 | 13.0 | 0.00 | 0.00 | 0.00 | ||
| 20260504081020 | 0 | 270 | 10.0 | 13.0 | 0.00 | 0.00 | 0.00 | ||
| 20260504080531 | 0 | 270 | 10.0 | 14.0 | 0.00 | 0.00 | 0.00 | ||
| 20260504050521 | 0 | 248 | 9.0 | 12.0 | 0.00 | 0.00 | 0.00 | ||
| 20260504045521 | 0 | 248 | 8.0 | 10.0 | 0.00 | 0.00 | 0.00 | ||
| 20260504045021 | 0 | 248 | 8.0 | 10.0 | 0.00 | 0.00 | 0.00 | ||
| 20260504044521 | 0 | 248 | 8.0 | 11.0 | 0.00 | 0.00 | 0.00 | ||
| 20260504044103 | 0 | 248 | 9.0 | 11.0 | 0.00 | 0.00 | 0.00 | ||
| 20260504043526 | 0 | 248 | 9.0 | 11.0 | 0.00 | 0.00 | 0.00 | ||
| 20260504043026 | 0 | 248 | 8.0 | 11.0 | 0.00 | 0.00 | 0.00 | ||
| 20260504042521 | 0 | 248 | 9.0 | 10.0 | 0.00 | 0.00 | 0.00 | ||
| 20260504042102 | 0 | 248 | 8.0 | 11.0 | 0.00 | 0.00 | 0.00 | ||
| 20260504041521 | 0 | 248 | 9.0 | 11.0 | 0.00 | 0.00 | 0.00 | ||
| 20260504041021 | 0 | 270 | 9.0 | 11.0 | 0.00 | 0.00 | 0.00 | ||
| 20260504040538 | 0 | 270 | 9.0 | 11.0 | 0.00 | 0.00 | 0.00 | ||
| 20260504040030 | 0 | 270 | 9.0 | 10.0 | 0.00 | 0.00 | 0.00 | ||
| 20260504034521 | 0 | 270 | 9.0 | 11.0 | 0.00 | 0.00 | 0.00 | ||
| 20260504034020 | 0 | 270 | 8.0 | 10.0 | 0.00 | 0.00 | 0.00 | ||
| 20260504033521 | 0 | 270 | 8.0 | 10.0 | 0.00 | 0.00 | 0.00 | ||
| 20260504033021 | 0 | 270 | 9.0 | 11.0 | 0.00 | 0.00 | 0.00 | ||
| 20260504032520 | 0 | 270 | 8.0 | 11.0 | 0.00 | 0.00 | 0.00 | ||
| 20260504032026 | 0 | 270 | 9.0 | 10.0 | 0.00 | 0.00 | 0.00 | ||
| 20260504031520 | 0 | 270 | 8.0 | 10.0 | 0.00 | 0.00 | 0.00 | ||
| 20260504031041 | 0 | 270 | 8.0 | 10.0 | 0.00 | 0.00 | 0.00 | ||
| 20260504030520 | 0 | 248 | 7.0 | 9.0 | 0.00 | 0.00 | 0.00 | ||
| 20260504025520 | 0 | 270 | 7.0 | 9.0 | 0.00 | 0.00 | 0.00 | ||
| 20260504025020 | 0 | 270 | 8.0 | 10.0 | 0.00 | 0.00 | 0.00 | ||
| 20260504024528 | 0 | 270 | 7.0 | 10.0 | 0.00 | 0.00 | 0.00 | ||
| 20260504024040 | 0 | 270 | 7.0 | 9.0 | 0.00 | 0.00 | 0.00 | ||
| 20260504023521 | 0 | 270 | 7.0 | 9.0 | 0.00 | 0.00 | 0.00 | ||
| 20260504023020 | 0 | 270 | 8.0 | 10.0 | 0.00 | 0.00 | 0.00 | ||
| 20260504022521 | 0 | 270 | 8.0 | 11.0 | 0.00 | 0.00 | 0.00 | ||
| 20260504022020 | 0 | 270 | 8.0 | 10.0 | 0.00 | 0.00 | 0.00 | ||
| 20260504021541 | 0 | 270 | 8.0 | 10.0 | 0.00 | 0.00 | 0.00 | ||
| 20260504021020 | 0 | 270 | 8.0 | 10.0 | 0.00 | 0.00 | 0.00 | ||
| 20260504020529 | 0 | 270 | 7.0 | 10.0 | 0.00 | 0.00 | 0.00 | ||
| 20260504020042 | 0 | 270 | 7.0 | 9.0 | 0.00 | 0.00 | 0.00 | ||
| 20260504015521 | 0 | 270 | 7.0 | 9.0 | 0.00 | 0.00 | 0.00 | ||
| 20260504015020 | 0 | 270 | 7.0 | 8.0 | 0.00 | 0.00 | 0.00 | ||
| 20260504014520 | 0 | 270 | 6.0 | 8.0 | 0.00 | 0.00 | 0.00 | ||
| 20260504014020 | 0 | 270 | 7.0 | 9.0 | 0.00 | 0.00 | 0.00 | ||
| 20260504013520 | 0 | 293 | 7.0 | 10.0 | 0.00 | 0.00 | 0.00 | ||
| 20260504013020 | 0 | 293 | 7.0 | 10.0 | 0.00 | 0.00 | 0.00 | ||
| 20260504012520 | 0 | 270 | 7.0 | 10.0 | 0.00 | 0.00 | 0.00 | ||
| 20260504012029 | 0 | 293 | 7.0 | 10.0 | 0.00 | 0.00 | 0.00 | ||
| 20260504011520 | 0 | 293 | 7.0 | 10.0 | 0.00 | 0.00 | 0.00 | ||
| 20260504011021 | 0 | 293 | 7.0 | 10.0 | 0.00 | 0.00 | 0.00 | ||
| 20260504010520 | 0 | 293 | 8.0 | 11.0 | 0.00 | 0.00 | 0.00 | ||
| 20260504010041 | 0 | 293 | 9.0 | 12.0 | 0.00 | 0.00 | 0.00 | ||
| 20260504005522 | 0 | 293 | 8.0 | 12.0 | 0.00 | 0.00 | 0.00 | ||
| 20260504005022 | 0 | 293 | 8.0 | 12.0 | 0.00 | 0.00 | 0.00 | ||
| 20260504004542 | 0 | 315 | 8.0 | 15.0 | 0.00 | 0.00 | 0.00 | ||
| 20260504004041 | 0 | 293 | 8.0 | 15.0 | 0.00 | 0.00 | 0.00 | ||
| 20260504003527 | 0 | 315 | 9.0 | 14.0 | 0.00 | 0.00 | 0.00 | ||
| 20260504003059 | 0 | 315 | 9.0 | 14.0 | 0.00 | 0.00 | 0.00 | ||
| 20260504001521 | 0 | 315 | 11.0 | 17.0 | 0.00 | 0.00 | 0.00 | ||
| 20260504001023 | 0 | 315 | 11.0 | 21.0 | 0.00 | 0.00 | 0.00 | ||
| 20260504000526 | 0 | 315 | 12.0 | 18.0 | 0.00 | 0.00 | 0.00 | ||
| 20260504000044 | 0 | 315 | 12.0 | 20.0 | 0.00 | 0.00 | 0.00 | ||
| 20260503235521 | 0 | 315 | 12.0 | 19.0 | 0.00 | 0.00 | 0.00 | ||
| 20260503235021 | 0 | 315 | 15.0 | 22.0 | 0.00 | 0.00 | 0.00 | ||
| 20260503234522 | 0 | 315 | 12.0 | 20.0 | 0.00 | 0.00 | 0.00 | ||
| 20260503234023 | 0 | 315 | 11.0 | 18.0 | 0.00 | 0.00 | 0.00 | ||
| 20260503233522 | 0 | 315 | 13.0 | 19.0 | 0.00 | 0.00 | 0.00 | ||
| 20260503233024 | 52 | 315 | 12.0 | 20.0 | 0.00 | 0.00 | 0.00 | 46 | |
| 20260503232521 | 52 | 315 | 14.0 | 22.0 | 0.00 | 0.00 | 0.00 | 45 | |
| 20260503232021 | 52 | 315 | 14.0 | 22.0 | 0.00 | 0.00 | 0.00 | 45 | |
| 20260503231521 | 52 | 315 | 12.0 | 19.0 | 0.00 | 0.00 | 0.00 | 46 | |
| 20260503231021 | 52 | 293 | 13.0 | 20.0 | 0.00 | 0.00 | 0.00 | 45 | |
| 20260503230522 | 52 | 315 | 13.0 | 20.0 | 0.00 | 0.00 | 0.00 | 46 | |
| 20260503230022 | 52 | 315 | 12.0 | 21.0 | 0.00 | 0.00 | 0.00 | 46 | |
| 20260503225022 | 52 | 315 | 13.0 | 21.0 | 0.00 | 0.00 | 0.00 | 48 | |
| 20260503224523 | 52 | 315 | 17.0 | 22.0 | 0.00 | 0.00 | 0.00 | 47 | |
| 20260503224021 | 52 | 315 | 16.0 | 23.0 | 0.00 | 0.00 | 0.00 | 50 | |
| 20260503223521 | 52 | 315 | 16.0 | 23.0 | 0.00 | 0.00 | 0.00 | 48 | |
| 20260503223021 | 52 | 315 | 16.0 | 22.0 | 0.00 | 0.00 | 0.00 | 50 | |
| 20260503222522 | 52 | 315 | 17.0 | 25.0 | 0.00 | 0.00 | 0.00 | 49 | |
| 20260503222022 | 52 | 315 | 15.0 | 21.0 | 0.00 | 0.00 | 0.00 | 50 | |
| 20260503221521 | 52 | 338 | 17.0 | 22.0 | 0.00 | 0.00 | 0.00 | 50 | |
| 20260503221022 | 52 | 338 | 19.0 | 28.0 | 0.00 | 0.00 | 0.00 | 49 | |
| 20260503220535 | 52 | 338 | 17.0 | 22.0 | 0.00 | 0.00 | 0.00 | 54 | |
| 20260503220023 | 52 | 338 | 16.0 | 22.0 | 0.00 | 0.00 | 0.00 | 53 | |
| 20260503215522 | 52 | 338 | 18.0 | 23.0 | 0.00 | 0.00 | 0.00 | 50 | |
| 20260503215033 | 52 | 338 | 15.0 | 18.0 | 0.00 | 0.00 | 0.00 | 51 | |
| 20260503214521 | 53 | 315 | 18.0 | 27.0 | 0.00 | 0.00 | 0.00 | 48 | |
| 20260503214022 | 53 | 315 | 16.0 | 23.0 | 0.00 | 0.00 | 0.00 | 46 | |
| 20260503213521 | 53 | 315 | 19.0 | 26.0 | 0.00 | 0.00 | 0.00 | 48 | |
| 20260503213021 | 53 | 338 | 21.0 | 28.0 | 0.00 | 0.00 | 0.00 | 48 | |
| 20260503212521 | 54 | 338 | 22.0 | 29.0 | 0.00 | 0.00 | 0.00 | 46 | |
| 20260503212022 | 54 | 338 | 19.0 | 30.0 | 0.00 | 0.00 | 0.00 | 51 | |
| 20260503211521 | 54 | 315 | 17.0 | 24.0 | 0.00 | 0.00 | 0.00 | 48 | |
| 20260503211021 | 55 | 338 | 17.0 | 23.0 | 0.00 | 0.00 | 0.00 | 49 | |
| 20260503210603 | 55 | 315 | 17.0 | 25.0 | 0.00 | 0.00 | 0.00 | 50 | |
| 20260503210021 | 54 | 315 | 18.0 | 25.0 | 0.00 | 0.00 | 0.00 | 51 | |
| 20260503205522 | 53 | 338 | 19.0 | 27.0 | 0.00 | 0.00 | 0.00 | 51 | |
| 20260503204521 | 52 | 338 | 17.0 | 21.0 | 0.00 | 0.00 | 0.00 | 55 | |
| 20260503204025 | 53 | 338 | 19.0 | 26.0 | 0.00 | 0.00 | 0.00 | 54 | |
| 20260503203521 | 53 | 338 | 21.0 | 27.0 | 0.00 | 0.00 | 0.00 | 53 | |
| 20260503203022 | 53 | 338 | 19.0 | 25.0 | 0.00 | 0.00 | 0.00 | 57 | |
| 20260503202521 | 53 | 338 | 18.0 | 26.0 | 0.00 | 0.00 | 0.00 | 55 | |
| 20260503202021 | 54 | 338 | 18.0 | 23.0 | 0.00 | 0.00 | 0.00 | 54 | |
| 20260503201521 | 54 | 338 | 18.0 | 25.0 | 0.00 | 0.00 | 0.00 | 55 | |
| 20260503201021 | 54 | 338 | 18.0 | 23.0 | 0.00 | 0.00 | 0.00 | 56 | |
| 20260503200523 | 54 | 338 | 20.0 | 25.0 | 0.00 | 0.00 | 0.00 | 54 | |
| 20260503200044 | 54 | 338 | 17.0 | 24.0 | 0.00 | 0.00 | 0.00 | 54 | |
| 20260503195524 | 53 | 338 | 16.0 | 21.0 | 0.00 | 0.00 | 0.00 | 58 | |
| 20260503195021 | 53 | 338 | 18.0 | 27.0 | 0.00 | 0.00 | 0.00 | 59 | |
| 20260503194542 | 53 | 338 | 18.0 | 22.0 | 0.00 | 0.00 | 0.00 | 61 | |
| 20260503194021 | 53 | 338 | 20.0 | 25.0 | 0.00 | 0.00 | 0.00 | 61 | |
| 20260503193526 | 52 | 338 | 20.0 | 26.0 | 0.00 | 0.00 | 0.00 | 63 | |
| 20260503193021 | 52 | 338 | 18.0 | 23.0 | 0.00 | 0.00 | 0.00 | 65 | |
| 20260503192521 | 52 | 338 | 18.0 | 25.0 | 0.00 | 0.00 | 0.00 | 66 | |
| 20260503192021 | 51 | 338 | 12.0 | 17.0 | 0.00 | 0.00 | 0.00 | 71 | |
| 20260503191521 | 50 | 338 | 8.0 | 12.0 | 0.00 | 0.00 | 0.00 | 74 | |
| 20260503191021 | 49 | 338 | 10.0 | 13.0 | 0.00 | 0.00 | 0.00 | 74 | |
| 20260503190543 | 49 | 338 | 10.0 | 12.0 | 0.00 | 0.00 | 0.00 | 74 | |
| 20260503190021 | 49 | 338 | 11.0 | 14.0 | 0.00 | 0.00 | 0.00 | 75 | |
| 20260503185521 | 50 | 338 | 10.0 | 14.0 | 0.00 | 0.00 | 0.00 | 75 | |
| 20260503185021 | 50 | 338 | 10.0 | 13.0 | 0.00 | 0.00 | 0.00 | 75 | |
| 20260503184548 | 50 | 338 | 10.0 | 13.0 | 0.00 | 0.00 | 0.00 | 76 | |
| 20260503184021 | 50 | 338 | 11.0 | 14.0 | 0.00 | 0.00 | 0.00 | 75 | |
| 20260503183523 | 49 | 338 | 12.0 | 15.0 | 0.00 | 0.00 | 0.00 | 75 | |
| 20260503183022 | 49 | 338 | 13.0 | 16.0 | 0.00 | 0.00 | 0.00 | 74 | |
| 20260503182521 | 49 | 338 | 13.0 | 18.0 | 0.00 | 0.00 | 0.00 | 74 | |
| 20260503182021 | 49 | 338 | 14.0 | 18.0 | 0.00 | 0.00 | 0.00 | 73 | |
| 20260503181520 | 49 | 338 | 13.0 | 19.0 | 0.00 | 0.00 | 0.00 | 73 | |
| 20260503181021 | 48 | 338 | 14.0 | 19.0 | 0.00 | 0.00 | 0.00 | 73 | |
| 20260503180524 | 48 | 338 | 16.0 | 22.0 | 0.00 | 0.00 | 0.00 | 72 | |
| 20260503180024 | 48 | 338 | 14.0 | 19.0 | 0.00 | 0.00 | 0.00 | 73 | |
| 20260503175521 | 48 | 338 | 14.0 | 20.0 | 0.00 | 0.00 | 0.00 | 73 | |
| 20260503175029 | 48 | 338 | 18.0 | 23.0 | 0.00 | 0.00 | 0.00 | 74 | |
| 20260503174541 | 48 | 338 | 19.0 | 24.0 | 0.00 | 0.00 | 0.00 | 74 | |
| 20260503174103 | 48 | 338 | 17.0 | 26.0 | 0.00 | 0.00 | 0.00 | 75 | |
| 20260503173542 | 48 | 338 | 19.0 | 25.0 | 0.00 | 0.00 | 0.00 | 75 | |
| 20260503173021 | 48 | 338 | 20.0 | 26.0 | 0.00 | 0.00 | 0.00 | 76 | |
| 20260503172521 | 48 | 338 | 21.0 | 27.0 | 0.00 | 0.00 | 0.00 | 77 | |
| 20260503172021 | 48 | 338 | 21.0 | 27.0 | 0.00 | 0.00 | 0.00 | 78 | |
| 20260503171521 | 48 | 338 | 22.0 | 27.0 | 0.00 | 0.00 | 0.00 | 79 | |
| 20260503171021 | 48 | 338 | 20.0 | 26.0 | 0.00 | 0.00 | 0.00 | 81 | |
| 20260503170522 | 48 | 338 | 19.0 | 24.0 | 0.00 | 0.00 | 0.00 | 82 | |
| 20260503150524 | 46 | 338 | 21.0 | 29.0 | 0.00 | 0.00 | 0.00 | 89 | |
| 20260503131022 | 47 | 23 | 19.0 | 23.0 | 0.00 | 0.00 | 0.00 | 89 | |
| 20260503130520 | 0 | 23 | 18.0 | 23.0 | 0.00 | 0.00 | 0.00 | ||
| 20260503110520 | 0 | 338 | 14.0 | 18.0 | 0.00 | 0.00 | 0.00 |